Cosmos 1570 Rocket - Orbit

View from above orbital plane
View from above orbital plane
View from above satellite
View from above satellite

Ground track
Ground track

The orbit data is extracted from the following two-line orbital elements,

1 15032U 84056B   13144.87255293  .00000214  00000-0  85459-4 0  1240
2 15032 074.0724 268.6683 0016526 084.3617 061.6896 14.34201118514084
Epoch (UTC): 24 May 2013 20:56:28
Eccentricity: 0.0016526
inclination: 74.0724°
perigee height: 766 km
apogee height: 789 km
right ascension of ascending node: 268.6683°
argument of perigee: 84.3617°
revolutions per day: 14.34201118
mean anomaly at epoch: 61.6896°
orbit number at epoch: 51408

The dashed part of the orbit path shows where the satellite is in the earth's shadow,  

Developed and maintained by Chris Peat, Heavens-Above GmbH. Please read the updated FAQ before sending e-mail. Imprint. DLR